Scarborough,

9:57 PM AST on July 20, 2017 (GMT -0400)
Scarborough

Weather History for TTCP - September, 2012

Change the Weather History Date:

Sunday, September 23, 2012

  Actual Average Record
Temperature  
Mean Temperature 81 °F -  
Max Temperature 87 °F 85 °F 89 °F (1996)
Min Temperature 75 °F 76 °F 75 °F (2000)
Cooling Degree Days 16    
Growing Degree Days 31 (Base 50)    
Moisture  
Dew Point 73 °F    
Average Humidity 78    
Maximum Humidity 94    
Minimum Humidity 62    
Precipitation  
Precipitation 0.00 in - - ()
Sea Level Pressure  
Sea Level Pressure 29.91 in    
Wind  
Wind Speed 4 mph ()    
Max Wind Speed 25 mph    
Max Gust Speed 34 mph    
Visibility 5.4 miles    
Events Rain , Thunderstorm    
Averages and records for this station are not official NWS values.
T = Trace of Precipitation, MM = Missing Value Source: Averaged Metar Reports

Daily Weather History Graph

Daily Weather History Graph

Search for Another Location

Airport or City:

Trip Planner

Search our weather history database for the weather conditions in past years. The results will help you decide how hot, cold, wet, or windy it might be!

Date:

Astronomy

Sep. 23, 2012 Rise Set
Actual Time 5:52 AM AST 5:58 PM AST
Civil Twilight 5:31 AM AST 6:19 PM AST
Nautical Twilight 5:06 AM AST 6:44 PM AST
Astronomical Twilight 4:42 AM AST 7:08 PM AST
Moon 1:01 PM AST (9/23) No Moon Set
Length of Visible Light 12h 48m
Length of Day
12h 05m
First Quarter, 60% of the Moon is Illuminated
Sep 23
First Quarter
Sep 29
Full
Oct 8
Last Quarter
Oct 15
New
Oct 21
First Quarter

Hourly Weather History & Observations

Time (AST) Temp. Heat Index Dew Point Humidity Pressure Visibility Wind Dir Wind Speed Gust Speed Precip Events Conditions
12:00 AM 80.6 °F 85.4 °F 73.4 °F 79% 29.92 in 6.2 mi Calm Calm - N/A   Mostly Cloudy
1:00 AM 80.6 °F 85.4 °F 73.4 °F 79% 29.89 in 6.2 mi Calm Calm - N/A   Mostly Cloudy
2:00 AM 78.8 °F - 73.4 °F 83% 29.89 in 6.2 mi Calm Calm - N/A   Mostly Cloudy
3:00 AM 78.8 °F - 71.6 °F 78% 29.86 in 6.2 mi Calm Calm - N/A   Mostly Cloudy
4:00 AM 78.8 °F - 71.6 °F 78% 29.89 in 6.2 mi Calm Calm - N/A   Mostly Cloudy
5:00 AM 78.8 °F - 73.4 °F 83% 29.89 in 6.2 mi Calm Calm - N/A   Mostly Cloudy
6:00 AM 78.8 °F - 73.4 °F 83% 29.92 in 6.2 mi Calm Calm - N/A   Mostly Cloudy
8:00 AM 84.2 °F 90.9 °F 73.4 °F 70% 29.92 in 6.2 mi ESE 13.8 mph - N/A   Mostly Cloudy
9:00 AM 86.0 °F 93.4 °F 73.4 °F 66% 29.95 in 6.2 mi ESE 11.5 mph - N/A   Mostly Cloudy
10:00 AM 87.8 °F 97.6 °F 75.2 °F 66% 29.95 in 6.2 mi ESE 13.8 mph - N/A   Mostly Cloudy
11:00 AM 87.8 °F 95.6 °F 73.4 °F 62% 29.92 in 6.2 mi East 16.1 mph - N/A   Mostly Cloudy
12:00 PM 87.8 °F 95.6 °F 73.4 °F 62% 29.92 in 6.2 mi East 8.1 mph - N/A   Mostly Cloudy
12:26 PM 86.0 °F 93.4 °F 73.4 °F 66% 29.92 in 3.1 mi ESE 25.3 mph - N/A Rain Light Rain Showers
1:00 PM 78.8 °F - 73.4 °F 83% 29.89 in 5.6 mi SE 11.5 mph - N/A Thunderstorm Thunderstorm
2:00 PM 80.6 °F 84.6 °F 71.6 °F 74% 29.86 in 6.2 mi East 5.8 mph - N/A   Mostly Cloudy
3:00 PM 82.4 °F 88.2 °F 73.4 °F 74% 29.89 in 6.2 mi East 5.8 mph - N/A   Mostly Cloudy
4:00 PM 82.4 °F 88.2 °F 73.4 °F 74% 29.89 in 6.2 mi NE 5.8 mph - N/A   Mostly Cloudy
4:22 PM 82.4 °F 88.2 °F 73.4 °F 74% 29.89 in 3.7 mi NE 5.8 mph - N/A Rain , Thunderstorm Light Thunderstorms and Rain
5:00 PM 78.8 °F - 71.6 °F 78% 29.89 in 3.7 mi East 9.2 mph - N/A Rain , Thunderstorm Light Thunderstorms and Rain
6:00 PM 75.2 °F - 71.6 °F 89% 29.89 in 2.5 mi SW 5.8 mph - N/A Rain , Thunderstorm Light Thunderstorms and Rain
7:00 PM 77.0 °F - 73.4 °F 89% 29.92 in 5.6 mi South 5.8 mph - N/A Rain , Thunderstorm Light Thunderstorms and Rain
8:00 PM 77.0 °F - 71.6 °F 83% 29.95 in 1.2 mi SSE 11.5 mph 34.5 mph N/A Rain , Thunderstorm Light Thunderstorms and Rain
9:00 PM 75.2 °F - 71.6 °F 89% 29.95 in 5.0 mi Calm Calm - N/A Rain Light Rain
10:00 PM 75.2 °F - 73.4 °F 94% 29.95 in 6.2 mi Calm Calm - N/A   Overcast
11:00 PM 75.2 °F - 73.4 °F 94% 29.92 in 6.2 mi Calm Calm - N/A   Overcast